User: anonymous   Login
Location: Bangkok
(13.7500°N, 100.5170°E)
Time: 07:40:10
(UTC+07:00)
Language:

Cosmos 1898 Rocket - Orbit

View from above orbital plane
View from above orbital plane
View from above satellite
View from above satellite

Ground track
Ground track

The orbit data is extracted from the following two-line orbital elements,

1 18586U 87098B   17050.85971958  .00000017  00000-0  14658-4 0  9991
2 18586  74.0078 151.3814 0022017 237.6247 261.5880 14.36763238530519
Epoch (UTC): 19 February 2017 20:37:59
Eccentricity: 0.0022017
inclination: 74.0078°
perigee height: 753 km
apogee height: 785 km
right ascension of ascending node: 151.3814°
argument of perigee: 237.6247°
revolutions per day: 14.36763238
mean anomaly at epoch: 261.5880°
orbit number at epoch: 53051

The dashed part of the orbit path shows where the satellite is in the earth's shadow,  

DLR